Location: Ajegunle
(8.3167°N, 4.3833°E)
Time: 05:16:53
(UTC+00:00)

Daily predictions for brighter satellites

Satellite Brightness Start Highest point End
(mag) Time Altitude Azimuth Time Altitude Azimuth Time Altitude Azimuth
ATLAS 2AS CENTAUR R/B 4.0 02:49:53 37° ESE 02:50:35 37° ESE 02:57:41 10° NE
Intelsat 5-1 Rocket 4.0 03:00:40 63° NNW 03:00:47 63° NNW 03:19:34 10° ENE
CZ-3B R/B 4.3 02:55:48 10° WNW 03:24:05 74° SSW 03:31:40 10° SE
Cosmos 2315 Rocket 4.3 03:31:32 54° NNW 03:31:32 54° NNW 03:36:24 10° N
Ariane H10+ 4.1 03:26:29 42° W 03:35:22 82° S 03:43:12 10° E
Cosmos 1455 3.9 03:40:52 31° NNE 03:40:52 31° NNE 03:43:05 10° NNE
ADEOS 3.7 03:36:06 10° NNE 03:41:17 71° ESE 03:42:02 61° SSE
SEDSat Delta rocket 4.5 03:41:59 42° NW 03:42:19 42° NNW 03:48:38 10° NE
ERS-2 3.9 03:48:02 26° NNE 03:48:02 26° NNE 03:49:50 10° N
Cosmos 1400 Rocket 3.6 03:51:37 44° NNE 03:51:37 44° NNE 03:54:22 10° N
Cosmos 2278 Rocket 2.5 03:54:09 47° NW 03:54:09 47° NW 03:58:59 10° N
ARIANE 5 R/B 3.9 03:58:39 22° SE 03:58:39 22° SE 03:59:41 10° SE
Cosmos 1812 Rocket 4.0 04:00:13 47° NNW 04:00:13 47° NNW 04:03:28 10° N
Palapa B4 Rocket 3.7 03:58:31 49° SW 04:00:13 72° SSE 04:04:59 10° ENE
ATLAS 2A CENTAUR R/B 2.6 04:02:02 24° N 04:03:12 32° NE 04:09:26 10° E
ARIANE 5 R/B 3.8 04:03:46 16° S 04:05:41 19° SSE 04:13:41 10° ESE
Meteor 2-10 Rocket 3.6 04:09:39 47° WSW 04:10:09 48° W 04:15:09 10° N
Cosmos 1269 Rocket 3.9 04:05:36 10° NNW 04:10:53 90° NE 04:16:12 10° SSE
CZ-4B R/B 4.0 04:08:21 10° NNE 04:12:28 46° E 04:16:24 10° S
H-2A R/B 3.9 04:16:24 15° NW 04:16:24 15° NW 04:17:15 10° NNW
NOSS 3-4 (A) 4.1 04:17:04 30° W 04:17:55 31° WNW 04:23:06 10° N
NOSS 3-4 (C) 4.0 04:17:10 30° W 04:18:04 32° WNW 04:23:14 10° N
Cosmos 1315 Rocket 3.6 04:16:52 10° S 04:20:52 53° E 04:24:52 10° NNE
USA 281 4.1 04:16:46 10° N 04:22:12 28° WNW 04:23:50 25° W
CZ-4B R/B 1.5 04:24:30 10° SSE 04:27:49 71° E 04:31:02 10° N
ATLAS 2A CENTAUR R/B 2.0 04:29:04 20° NNW 04:30:15 33° NNE 04:32:05 10° E
Chandra Rocket (1) 4.3 04:24:54 19° W 04:31:11 33° NW 04:35:30 10° NNE
Cosmos 1371 Rocket 3.9 04:27:54 10° SSW 04:33:06 85° WNW 04:38:19 10° N
CZ-4C R/B 3.6 04:31:49 10° S 04:35:37 27° ESE 04:39:32 10° NE
GPS 2-14 Rocket1 3.8 04:36:54 19° WNW 04:38:49 30° NNW 04:42:09 10° NE
Alouette 2 Rocket 4.2 04:35:32 10° S 04:39:21 48° E 04:42:46 10° NNE
Cosmos 2058 2.9 04:36:24 10° NNW 04:40:32 59° W 04:44:40 10° S
ATLAS 2AS CENTAUR R/B 3.8 04:37:23 19° WSW 04:41:22 30° WNW 04:48:05 10° N
Cosmos-2242 3.3 04:37:44 10° SSW 04:41:47 43° W 04:45:55 10° NNW
Cosmos 1408 2.4 04:39:03 10° N 04:42:43 83° W 04:46:22 10° S
Cosmos 2184 Rocket 4.3 04:36:48 10° N 04:42:58 70° E 04:49:05 10° S
Cosmos 2297 3.7 04:37:35 10° SSW 04:43:19 80° WNW 04:49:03 10° NNE
Cosmos 2074 Rocket 4.3 04:37:15 10° N 04:43:31 75° E 04:49:48 10° S
RESURS DK-1 2.5 04:43:42 10° SSW 04:47:48 77° ESE 04:51:53 10° NNE
USA 102 4.2 04:45:17 10° SSE 04:48:50 89° E 04:54:45 10° NNW
DELTA 4 R/B 4.1 04:38:57 15° W 04:49:02 38° NW 04:53:05 10° NNE
COSMOS 2455 2.8 04:43:50 10° SSW 04:49:49 82° WNW 04:55:50 10° NNE
Cosmos 1892 3.4 04:46:39 10° NNW 04:50:00 31° W 04:53:21 10° SSW
SWIFT 4.4 04:47:54 10° NW 04:50:48 18° N 04:53:42 10° NE
ARIANE 5 DEB (SYLDA) 4.3 04:48:14 16° SW 04:50:48 40° SSE 04:58:39 10° E
Cosmos 2056 Rocket 3.6 04:46:59 10° SSW 04:52:13 62° WNW 04:57:32 10° N
H-2A R/B 4.5 04:50:05 10° NNE 04:53:37 35° E 04:57:06 10° SSE
ARIANE 5 R/B 3.5 04:48:56 14° WSW 04:55:24 30° SSW 04:58:13 10° SE
Meteor PRIRODA 4.0 04:52:05 10° N 04:55:38 44° WNW 04:59:12 10° SSW
Cosmos 1340 3.2 04:52:02 10° N 04:55:43 61° E 04:59:25 10° SSE
Abrixas rocket 3.5 04:53:23 10° SSW 04:56:00 32° SE 04:58:36 10° ENE
GPS 2-18 Rocket1 3.5 04:54:10 14° W 04:57:02 42° SSW 05:00:33 10° SE
Meteor 1-31 Rocket 4.3 04:56:02 10° NW 04:58:29 17° WNW 05:00:27 12° WSW
Sylda 5 2.5 04:55:09 13° WSW 04:58:38 46° S 05:02:15 10° E
H-2A R/B 2.2 04:57:01 10° N 05:00:50 79° WNW 05:04:48 10° SSW
ALOS 3.5 04:57:40 10° NNW 05:01:12 22° WNW 05:04:44 10° SW
ATLAS 3B CENTAUR R/B 2.1 04:53:38 10° WNW 05:01:58 83° NNE 05:05:40 10° ESE
COSMO-SKYMED 1 3.6 05:03:32 10° SSE 05:07:45 52° ENE 05:11:57 10° N
APEX 4.4 05:06:11 10° SW 05:09:01 20° WNW 05:11:29 10° NNW
Ariane H10+ 3.4 04:57:35 10° W 05:13:09 37° SSW 05:16:51 10° SE
ASTEX 1 4.5 05:10:30 10° NNW 05:14:26 24° W 05:18:24 10° SW
Cosmos 1452 Rocket 4.2 05:10:27 10° S 05:15:38 61° ESE 05:20:48 10° NNE
ADEOS Rocket 3.6 05:08:35 10° S 05:15:39 55° WSW 05:23:10 10° NNW
ARIANE 5 R/B 3.8 05:25:46 10° W 05:49:30 53° SSW 05:53:23 10° ESE
ARIANE 5 R/B 4.0 05:32:07 10° W 06:10:26 69° S 06:15:45 10° E
